sat.trackr.live / text

‹ back to catalog

STARLINK-35134

NORAD 65641 · 2025-210V

PAYLOAD ACTIVE UNKNOWN

§ Identity

Operator
Country
US
Launch date
2025-09-18
Launch site
AFETR
Launch vehicle
Mass (kg)
RCS (m²)

Purposes: comms

External: N2YO · Heavens-Above · Gunter

§ Orbital elements

Epoch: 2026-09-20T21:29:49.753536Z

Period
93.85 min
Inclination
53.1587°
Eccentricity
0.0002167
Mean motion
15.34408110 rev/d
Perigee alt
461.2 km
Apogee alt
464.2 km
Semi-major
6,840.8 km
B*
3.9833e-4
RAAN
115.7087°
Arg perigee
80.1306°
Mean anomaly
279.9941°
Rev number
5,768

§ Raw data

STARLINK-351341 65641U 25210V   26263.89571474  .00013109  00000+0  39833-3 0  99982 65641  53.1587 115.7087 0002167  80.1306 279.9941 15.34408110 57680

JSON: /api/v1/satellites/65641 · /tle

For live sub-satellite position, see the globe view (requires WebGL).

§ Visibility from observer

Set your observer location to see the next 7 days of passes ≥ 10°. The values pass through the URL so the page stays shareable.

No JS? Fill the form by hand. The geolocation button needs JavaScript.